Weather History for K2WX - October, 2011

Change the Weather History Date:

Wednesday, October 26, 2011

  Actual Average Record
Temperature  
Mean Temperature 34 °F 42 °F  
Max Temperature 46 °F 53 °F 75 °F (1999)
Min Temperature 21 °F 30 °F 9 °F (1997)
Degree Days  
Heating Degree Days 31 23  
Month to date heating degree days 375 488  
Since 1 July heating degree days 561 779  
Cooling Degree Days 0 0  
Month to date cooling degree days 30 0  
Year to date cooling degree days 554 512  
Moisture  
Dew Point 25 °F    
Average Humidity 69    
Maximum Humidity 92    
Minimum Humidity 45    
Precipitation  
Precipitation 0.00 in 0.03 in 0.12 in (2003)
Month to date precipitation 0.56 0.52  
Year to date precipitation 18.23 13.74  
Sea Level Pressure  
Sea Level Pressure 30.21 in    
Wind  
Wind Speed 9 mph (WNW)    
Max Wind Speed 20 mph    
Max Gust Speed 25 mph    
T = Trace of Precipitation, MM = Missing Value Source: NWS Daily Summary

Daily Weather History Graph

Daily Weather History Graph

Search for Another Location

Airport or City:

Trip Planner

Search our weather history database for the weather conditions in past years. The results will help you decide how hot, cold, wet, or windy it might be!

Date:

Astronomy

Oct. 26, 2011 Rise Set
Actual Time 7:25 AM MDT 5:50 PM MDT
Civil Twilight 6:54 AM MDT 6:20 PM MDT
Nautical Twilight 6:19 AM MDT 6:55 PM MDT
Astronomical Twilight 5:45 AM MDT 7:29 PM MDT
Moon 7:18 AM MDT (10/26) 5:30 PM MDT (10/26)
Length of Visible Light 11h 26m
Length of Day
10h 25m
Waning Crescent, 0% of the Moon is Illuminated
Oct 26
Waning Crescent
Oct 26
New
Nov 2
First Quarter
Nov 10
Full
Nov 18
Last Quarter

Hourly Weather History & Observations

Time (MDT) Temp. Windchill Dew Point Humidity Pressure Visibility Wind Dir Wind Speed Gust Speed Precip Events Conditions
12:56 AM 28.9 °F 19.2 °F 25.0 °F 85% 30.24 in - WNW 11.5 mph - N/A   Unknown
1:56 AM 28.0 °F 18.6 °F 24.1 °F 85% 30.24 in - WNW 10.4 mph - N/A   Unknown
2:56 AM 25.0 °F 16.3 °F 21.9 °F 88% 30.25 in - West 8.1 mph - N/A   Unknown
3:56 AM 21.9 °F 14.5 °F 19.9 °F 92% 30.27 in - SW 5.8 mph - N/A   Unknown
4:56 AM 25.0 °F 14.2 °F 21.0 °F 85% 30.27 in - WNW 11.5 mph - N/A   Unknown
5:56 AM 26.1 °F 15.0 °F 23.0 °F 88% 30.26 in - NW 12.7 mph - N/A   Unknown
6:56 AM 27.0 °F 15.6 °F 23.0 °F 85% 30.26 in - NW 13.8 mph - N/A   Unknown
7:56 AM 26.1 °F 15.6 °F 23.0 °F 88% 30.27 in - NW 11.5 mph - N/A   Unknown
8:56 AM 30.0 °F 20.5 °F 26.1 °F 85% 30.28 in - West 11.5 mph - N/A   Unknown
9:56 AM 35.1 °F 27.4 °F 30.0 °F 82% 30.29 in - West 10.4 mph - N/A   Unknown
10:56 AM 39.0 °F 31.4 °F 30.0 °F 70% 30.27 in - WNW 12.7 mph - N/A   Unknown
11:56 AM 43.0 °F 36.0 °F 27.0 °F 53% 30.25 in - WNW 13.8 mph - N/A   Unknown
12:56 PM 44.1 °F 36.8 °F 24.1 °F 45% 30.21 in - NW 16.1 mph - N/A   Unknown
1:56 PM 45.0 °F 38.5 °F 25.0 °F 46% 30.19 in - West 13.8 mph - N/A   Unknown
2:56 PM 42.1 °F 36.1 °F 25.0 °F 51% 30.18 in - WNW 10.4 mph - N/A   Unknown
3:56 PM 43.0 °F 37.7 °F 24.1 °F 47% 30.17 in - North 9.2 mph - N/A   Unknown
4:56 PM 41.0 °F 34.7 °F 24.1 °F 51% 30.16 in - NW 10.4 mph - N/A   Unknown
5:56 PM 37.9 °F 32.1 °F 26.1 °F 62% 30.15 in - North 8.1 mph - N/A   Unknown
6:56 PM 36.0 °F - 26.1 °F 67% 30.15 in - Calm Calm - N/A   Unknown
7:56 PM 32.0 °F 27.5 °F 25.0 °F 75% 30.16 in - SW 4.6 mph - N/A   Unknown
8:56 PM 32.0 °F 28.7 °F 25.0 °F 75% 30.13 in - West 3.5 mph - N/A   Unknown
9:56 PM 28.9 °F 25.2 °F 24.1 °F 82% 30.12 in - West 3.5 mph - N/A   Unknown
10:56 PM 27.0 °F 23.0 °F 24.1 °F 89% 30.09 in - WSW 3.5 mph - N/A   Unknown
11:56 PM 27.0 °F 21.6 °F 21.9 °F 81% 30.07 in - South 4.6 mph - N/A   Unknown